[[{"header":{"parameterUnit":"m.s-1","parameterCategory":1,"la1":30.2992,"la2":30.254,"lo1":-89.0895,"lo2":-89.0443,"dy":0.0025,"dx":0.0025,"nx":19,"ny":19,"refTime":"2026-04-11T21:00:00:Z","depth":0,"parameterNumber":2,"parameterNumberName":"U-component_of_WINDS"},"data":[0,0,0,-4.5767,-4.577,-4.5938,-4.5939,-4.6156,-4.6158,0,0,0,0,0,0,0,0,0,0,0,-4.5719,-4.572,-4.5766,-4.5771,-4.5938,-4.5939,-4.6156,-4.6158,0,0,0,0,0,0,0,0,0,0,0,-4.5718,-4.572,-4.5722,-4.5771,-4.5938,-4.5939,-4.6155,-4.6028,0,0,0,0,0,0,0,0,0,0,-4.5864,-4.5822,-4.5719,-4.5722,-4.5772,-4.5938,-4.5939,-4.6021,-4.6036,-4.6081,0,-4.6123,0,-4.6144,-4.6173,-4.6174,0,0,0,-4.5769,-4.581,-4.5854,-4.5722,-4.5774,-4.5938,-4.5862,-4.6029,-4.6045,-4.61,-4.6126,-4.6134,-4.6148,-4.6174,-4.6176,-4.6445,-4.6446,0,0,-4.5759,-4.575,-4.5843,-4.5864,-4.5839,-4.5857,-4.5867,-4.6039,-4.6066,-4.6127,-4.6139,-4.6151,-4.6176,-4.6178,-4.6444,-4.6445,0,0,0,-4.5734,-4.5744,-4.5783,-4.5855,-4.5886,-4.5862,-4.5874,-4.6059,-4.6072,-4.6142,-4.6154,-4.6177,-4.618,-4.6442,-4.6444,-4.6499,0,0,0,-4.5728,-4.5729,-4.5779,-4.5775,-4.5883,-4.5975,-4.589,-4.6061,-4.608,-4.6153,-4.6177,-4.6182,-4.6441,-4.6443,-4.6494,-4.6525,0,0,0,-4.5707,-4.5726,-4.5751,-4.5774,-4.5846,-4.5972,-4.5995,-4.6065,-4.6088,-4.6174,-4.6183,-4.644,-4.6443,-4.649,-4.6519,-4.6591,0,0,0,-4.5681,-4.5799,-4.5752,-4.5888,-4.5844,-4.6006,-4.5994,-4.6115,-4.6196,-4.6178,-4.6441,-4.6444,-4.6489,-4.6515,-4.6587,-4.6648,-4.6674,0,0,-4.5824,-4.5815,-4.5896,-4.5859,-4.6026,-4.5981,-4.6156,-4.6239,-4.6256,-4.6381,-4.6388,-4.6496,-4.6518,-4.659,-4.6827,-4.6847,0,0,0,-4.5938,-4.5995,-4.6042,-4.6118,-4.6184,-4.6243,-4.63,-4.6331,-4.6438,-4.6319,-4.6544,-4.6558,-4.66,-4.6629,-4.6647,-4.6682,-4.6458,-4.6458,-4.6458,-4.6123,-4.6139,-4.6273,-4.6309,-4.6383,-4.6441,-4.6502,-4.6553,-4.6548,-4.6601,-4.6637,-4.6778,-4.6813,-4.6826,-4.6863,-4.6674,-4.6674,-4.6674,-4.6675,-4.633,-4.6412,-4.6403,-4.6529,-4.6545,-4.6651,-4.6712,-4.6705,-4.6805,-4.6753,-4.6791,-4.673,-4.6848,-4.6881,-4.6679,-4.6678,-4.6678,-4.6677,-4.6677,-4.645,-4.6492,-4.6528,-4.6639,-4.6723,-4.6756,-4.6852,-4.6865,-4.6877,-4.6915,-4.6953,-4.6952,-4.6949,-4.6933,-4.6934,-4.6934,-4.6935,-4.6935,-4.6935,-4.6558,-4.6597,-4.6677,-4.6757,-4.6807,-4.6875,-4.6935,-4.6984,-4.7042,-4.7043,-4.7043,-4.7031,-4.6858,-4.6811,-4.6943,-4.6942,-4.6941,-4.694,-4.6939,-4.6755,-4.6713,-4.6835,-4.6885,-4.698,-4.7062,-4.7077,-4.7177,-4.722,-4.7266,-4.7248,-4.7119,-4.711,-4.7097,-4.7058,-4.7246,-4.7246,-4.7246,-4.7246,-4.6853,-4.6852,-4.6979,-4.7057,-4.7137,-4.7163,-4.7299,-4.7348,-4.7391,-4.7418,-4.7394,-4.7346,-4.7332,-4.7332,-4.7313,-4.7277,-4.7516,-4.7516,-4.7516,-4.6974,-4.698,-4.7093,-4.7135,-4.7211,-4.7275,-4.7403,-4.7493,-4.7534,-4.7528,-4.7439,-4.7428,-4.735,-4.7324,-4.7311,-4.7282,-4.7216,0,0]},{"header":{"parameterUnit":"m.s-1","parameterCategory":1,"la1":30.2992,"la2":30.254,"lo1":-89.0895,"lo2":-89.0443,"dy":0.0025,"dx":0.0025,"nx":19,"ny":19,"refTime":"2026-04-11T21:00:00:Z","depth":0,"parameterNumber":3,"parameterNumberName":"V-component_of_WINDS"},"data":[0,0,0,3.2802,3.2804,3.289,3.289,3.3004,3.3005,0,0,0,0,0,0,0,0,0,0,0,3.278,3.278,3.2802,3.2804,3.289,3.289,3.3004,3.3005,0,0,0,0,0,0,0,0,0,0,0,3.2779,3.278,3.2781,3.2804,3.289,3.289,3.3004,3.2937,0,0,0,0,0,0,0,0,0,0,3.2853,3.2835,3.278,3.2781,3.2805,3.289,3.289,3.2934,3.2941,3.2967,0,3.2992,0,3.3,3.3013,3.3013,0,0,0,3.2801,3.2829,3.285,3.2781,3.2806,3.289,3.285,3.2938,3.2946,3.2977,3.2993,3.2997,3.3002,3.3014,3.3014,3.3176,3.3177,0,0,3.2796,3.2796,3.2844,3.2855,3.2844,3.2848,3.2853,3.2943,3.296,3.2994,3.3,3.3004,3.3015,3.3015,3.3175,3.3176,0,0,0,3.2785,3.2793,3.2811,3.2851,3.2866,3.285,3.2856,3.2956,3.2962,3.3001,3.3005,3.3015,3.3017,3.3174,3.3176,3.3221,0,0,0,3.2782,3.2786,3.2809,3.281,3.2865,3.2912,3.2868,3.2956,3.2966,3.3005,3.3015,3.3018,3.3173,3.3175,3.3218,3.3242,0,0,0,3.2773,3.2785,3.2799,3.281,3.2847,3.2911,3.2922,3.2958,3.2969,3.3013,3.3018,3.3173,3.3175,3.3215,3.3238,3.3287,0,0,0,3.2763,3.2836,3.28,3.2883,3.2847,3.2939,3.2922,3.299,3.3033,3.3016,3.3173,3.3175,3.3214,3.3234,3.3283,3.3329,3.3348,0,0,3.2855,3.2847,3.2896,3.2866,3.2965,3.2925,3.3031,3.3069,3.3072,3.3141,3.3145,3.3219,3.3237,3.3286,3.345,3.3465,0,0,0,3.2926,3.2961,3.2987,3.303,3.3063,3.3093,3.3116,3.3131,3.3189,3.3108,3.3249,3.326,3.3288,3.331,3.3323,3.3348,3.3185,3.3185,3.3185,3.3056,3.3058,3.314,3.3154,3.3195,3.3219,3.3253,3.3277,3.3265,3.3298,3.3319,3.3418,3.3444,3.3453,3.3479,3.3342,3.3342,3.3342,3.3342,3.3193,3.3244,3.3229,3.3304,3.3305,3.3367,3.3394,3.3384,3.3442,3.3402,3.3427,3.3385,3.3469,3.3493,3.3346,3.3345,3.3345,3.3344,3.3344,3.3279,3.3305,3.3322,3.3386,3.3434,3.3444,3.3501,3.35,3.3499,3.3524,3.3547,3.3546,3.3546,3.3535,3.3535,3.3535,3.3536,3.3536,3.3536,3.3363,3.3382,3.3431,3.3474,3.3502,3.3539,3.3565,3.3592,3.3622,3.3617,3.3617,3.3603,3.3477,3.3446,3.3541,3.354,3.354,3.3539,3.3539,3.3503,3.3472,3.3548,3.3577,3.3627,3.3677,3.3674,3.3731,3.3753,3.3782,3.3762,3.3669,3.366,3.365,3.3625,3.3761,3.3761,3.3761,3.3761,3.3578,3.3574,3.3653,3.3699,3.3743,3.375,3.3836,3.3858,3.3874,3.3888,3.3868,3.3834,3.3824,3.3821,3.3808,3.3784,3.3957,3.3957,3.3958,3.3665,3.3665,3.374,3.3757,3.3797,3.3832,3.3914,3.3967,3.3979,3.3966,3.39,3.3892,3.3836,3.3818,3.3804,3.3783,3.3739,0,0]}]]